Location: Newark
(35.6799°N, 139.7636°E)
Time: 22:19:50
(UTC+00:00)

Courier 1B - Visible Passes

Search period start: 10 December 2019 00:00
Search period end: 20 December 2019 00:00
Orbit: 963 x 1209 km, 28.3° (Epoch: 10 December)

Date Brightness Start Highest point End Pass type
(mag) Time Alt. Az. Time Alt. Az. Time Alt. Az.
10 Dec 9.8 09:15:48 10° SSE 09:16:05 10° SSE 09:16:23 10° SE visible
10 Dec 9.9 11:03:10 10° SW 11:04:20 14° SSW 11:04:20 14° SSW visible
11 Dec 9.3 10:10:12 10° SSW 10:14:00 22° S 10:14:00 22° S visible
12 Dec 9.3 09:17:34 10° SSW 09:22:01 18° SSE 09:23:39 16° SE visible
12 Dec 9.8 11:08:49 10° SW 11:10:33 18° SW 11:10:33 18° SW visible
13 Dec 9.6 08:25:38 10° S 08:28:26 13° SSE 08:31:19 10° SE visible
13 Dec 8.9 10:15:31 10° SW 10:20:12 30° S 10:20:12 30° S visible
14 Dec 8.9 09:22:25 10° SSW 09:28:00 26° SSE 09:29:49 24° SE visible
14 Dec 9.7 11:14:48 10° WSW 11:16:43 19° SW 11:16:43 19° SW visible
15 Dec 9.3 08:29:34 10° SSW 08:34:24 21° SSE 08:39:26 10° ESE visible
15 Dec 8.7 10:21:20 10° SW 10:26:20 37° SSW 10:26:20 37° SSW visible
16 Dec 8.6 09:27:59 10° SW 09:34:06 35° SSE 09:35:56 31° SE visible
16 Dec 9.8 11:21:01 10° WSW 11:22:50 19° WSW 11:22:50 19° WSW visible
17 Dec 8.8 08:34:47 10° SW 08:40:28 30° SSE 08:45:33 13° ESE visible
17 Dec 8.6 10:27:27 10° WSW 10:32:26 40° SSW 10:32:26 40° SSW visible
18 Dec 8.3 09:33:59 10° WSW 09:40:17 43° S 09:42:02 37° SE visible
18 Dec 9.9 11:27:24 10° WSW 11:28:56 17° WSW 11:28:56 17° WSW visible
19 Dec 8.5 08:40:34 10° SW 08:46:38 38° SSE 08:51:39 16° ESE visible
19 Dec 8.6 10:33:46 10° WSW 10:38:32 39° SW 10:38:32 39° SW visible
